カタログに戻る

TIANQI 27

運用中通信LEO
NORAD 59911·PAYLOAD·🇨🇳 China

打ち上げ May 29, 2024 から Yellow Sea Launch Area

Loading…

次のパス (今後24時間)

TLE

最新Source: Space-Track

元期: Sep 14, 2026, 14:01 UTC

1 59911U 24102C   26257.58451703 -.00000034  00000-0  65041-4 0  9997
2 59911  44.9770 223.6544 0008622 312.0062  48.0036 13.99175524117428

AllMySatでTIANQI 27をリアルタイム追跡

Download on the App Store